Tracking 19827 objects as of 22-Aug-2019
HD Live streaming from Space Station
objects crossing your sky now

FENGYUN 1C DEB

Track FENGYUN 1C DEB now!
10-day predictions


NORAD ID: 30362
Int'l Code: 1999-025ABZ
Perigee: 834.3 km
Apogee: 994.1 km
Inclination: 99.0 °
Period: 103.1 minutes
Semi major axis: 7285 km
RCS: 0.04 m2 (small)
Launch date: May 10, 1999
Source: People's Republic of China (PRC)
Launch site: Taiyaun Space Center, China (TSC)

Note: This is SATELLITE DEBRIS
aabbcc
Your satellite tracking list
Your tracking list is empty




NASA's NSSDC Master Catalog

Two Line Element Set (TLE):
1 30362U 99025ABZ 19233.72142557  .00000467  00000-0  35357-3 0  9993
2 30362  99.0426 147.1277 0109647 236.7852 122.2761 13.96175216639049
Source of the keplerian elements: AFSPC